[Date Prev][Date Next][Thread Prev][Thread Next][Date Index][Thread Index]

[jamsat-news:1148] jas2info #157



========================   ºÇ¿·¾ðÊó   ==============================

        Last updated ¡§Fri.10-Sep.-1999 13:00 (JST) #157

====================================================================
   
     ±ÒÀ±¾ðÊ󡡣ƣϥ·¥ê¡¼¥º¤Îµ°Æ»Í×ÁÇ¡¢¥Æ¥ì¥á¥È¥ê¡¢£Ñ£Ó£Ï¤Î¾õ¶·Åù¤ò
   ¤Þ¤È¤á¤Æ¤ß¤Þ¤·¤¿¡¥

  1¡Ë  £Æ£Ï¡Ý£²£¹¡ÊJAS-2¡¢¤Õ¤¸£³¹æ¡Ë¤Ï¡¢£¹·î£±£°Æü¡Ê¶â¡Ë£±£²¡§£°£±¡Ê£Ê£Ó£Ô¡Ë¤Î
     ¥Ñ¥¹¤Î£Ê£Á¥¢¥Ê¥í¥°¥â¡¼¥É¤«¤é£±£²¡§£°£´¡Ê£Ê£Ó£Ô¡Ë¤ËÀÚ¤êÂؤï¤ê¡¡£Ê£Á£Ò£Ì¤Î
¡¡¡¡¥Û¥à¥Ú¡¼¥¸¤Î¡Ö¤Õ¤¸£³¹æ¡×¤Î¥¹¥±¥¸¥å¡¼¥ë¤Î¤È¤¦¤ê£Æ£Í¤Î¥Ç¥¸¥È¡¼¥«¥â¡¼¥É¤Ç±¿ÍѤµ¤ì
¡¡¡¡¡ÖThis¡¡is¡¡JAS-£²¡×¤Î½÷À­¤Î¥¢¥Ê¥¦¥ó¥¹¤È³Ô¸ø¤ÎÌĤ­À¼¤¬¥¯¥ê¥ä¡¼¤Ëʹ¤³¤¨¤Æ¤¤¤Þ¤·¤¿. 
       
 ¢£ µ°Æ»Í×ÁÇ£±¡§¡Öjamsat¡Ýkeps¡§£¹£±£¹¡×¤è¤ê¡¡
              SB KEPS @ AMSAT  $ORB99246.N
¡¡¡¡¡¡¡¡¡¡¡¡¡¡2Line Orbital Elements 99246.AMSAT

¡¡¡¡HR AMSAT ORBITAL ELEMENTS FOR AMATEUR SATELLITES IN NASA FORMAT
¡¡¡¡FROM WA5QGD FORT WORTH,TX September 3, 1999
¡¡¡¡SEND SUBSCRIBE/UNSUBSCRIBE TO majordomo@amsat.org ONLY
¡¡¡¡BID: ORB99246.N
¡¡¡¡
¡¡¡¡DECODE 2-LINE ELSETS WITH THE FOLLOWING KEY:
¡¡1 AAAAAU 00  0  0 BBBBB.BBBBBBBB  .CCCCCCCC  00000-0  00000-0 0  DDDZ
¡¡2 AAAAA EEE.EEEE FFF.FFFF GGGGGGG HHH.HHHH III.IIII JJ.JJJJJJJJKKKKKZ
¡¡KEY: A-CATALOGNUM B-EPOCHTIME C-DECAY D-ELSETNUM E-INCLINATION F-RAAN
¡¡G-ECCENTRICITY H-ARGPERIGEE I-MNANOM J-MNMOTION K-ORBITNUM Z-CHECKSUM
¡¡TO ALL RADIO AMATEURS BT
 
¡¡¡¡FO-29
¡¡¡¡1 24278U 96046B   99245.43102273  .00000001  00000-0  39621-4 0  2707
¡¡¡¡2 24278  98.5679 186.2779 0350680 254.1793 102.0420 13.52677526150258
¡¡
 ¢£ µ°Æ»Í×ÁÇ£²¡§¡Öjamsat¡Ýkeps¡§£¹£²£°¡×¤è¤ê                         
¡¡¡¡¡¡¡¡¡¡¡¡¡¡¡¡¡¡SB KEPS @ AMSAT  $ORB99246.O
¡¡¡¡¡¡¡¡¡¡¡¡¡¡¡¡¡¡Orbital Elements  99246.OSCAR

¡¡¡¡HR AMSAT ORBITAL ELEMENTS FOR OSCAR SATELLITES
¡¡¡¡FROM WA5QGD FORT WORTH,TX September 3, 1999
¡¡¡¡SEND SUBSCRIBE/UNSUBSCRIBE TO majordomo@amsat.org ONLY
¡¡¡¡BID: ORB99246.O
¡¡¡¡TO ALL RADIO AMATEURS BT

  ¡¡Satellite: FO-29
¡¡¡¡Catalog number: 24278
¡¡¡¡Epoch time:      99245.43102273
¡¡¡¡Element set:     270
¡¡¡¡Inclination:       98.5679 deg
¡¡¡¡RA of node:       186.2779 deg
¡¡¡¡Eccentricity:    0.0350680
¡¡¡¡Arg of perigee:   254.1793 deg
¡¡¡¡Mean anomaly:     102.0420 deg
¡¡¡¡Mean motion:   13.52677526 rev/day
¡¡¡¡Decay rate:        1.0e-08 rev/day^2
¡¡¡¡Epoch rev:           15025
¡¡¡¡Checksum:              310
¡¡¡¡
 -----------------------------------------------------------
  £²)£Æ£Ï¡Ý£²£¹¡ÊJAS-2,¤Õ¤¸£³¹æ¡Ë¤Î £¹·î£±£°£³Æü¡Ê¶â¡Ë¤Î£±£²¡§£°£±¡ÊJST)¤Î¥Ñ¥¹¤Ç¤Ï
¡¡¡¡£Ê£Á¥¢¥Ê¥í¥°¥â¡¼¥É¤Ç±¿ÍѤµ¤ì¡¢£±£²¡§£°£´¤è¤ê£Æ£Í¥Ç¥£¥¸¥È¡¼¥«¤ËÀÚ¤êÂؤï¤ê¤Þ¤·¤¿
¡¡¡¡¤½¤ì¤Þ¤Ç¤Î¼èÆÀ¤·¤¿¥Æ¥ì¥á¥È¥ê¥Ç¡¼¥¿¤Î°ìÉôʬ¤Ç¤¹.

¡¡¡¡AS15130C1  10Sep99
¡¡¡¡JST 12:01 - 12:04
                                                   
¡¡HI HI E6 07 90 D9 1C 6E 10 0D 00 31 5B 5B 82 60 93 91 B0 7B BB B8 B9 B9 B7 
¡¡HI HI E6 C7 90 D9 01 6E 10 0D 00 31 75 6A 7F 60    90 B0    BB B8 B9 B9 B7 

¡¡¡¡AS15078C1   6Sep99
¡¡¡¡JST 15:45 - 15:55

¡¡HI HI A6 C7 90 DD 18 6D 10 0D 00 31 47 41 87 60 93 90 B0 7E BD BB BD BC BB
¡¡HI HI A6 C7 90 DD 0D 6D 10 0D 00 31 53 57    60 93 91 B0    BD BA BC BC BB
¡¡HI HI A6 C7 90 DD OA 6D 10 0D 00 31                         BD BA BC BC BB 
¡¡HI HI A6 C7 90 DD 08 6D 10 0D 00 31        1 60 93 91 B0    BD BA BC BC BB 
¡¡HI HI A6 C7 90 DD 0B 6D 10 0D 00 31 47 8B BE 60 93 91 B0    BC BA BC BC BB
¡¡HI HI A6 C7 90 DD 12 6D 0A 0D 00 31 88 55 86 60 93 91 B0 8D BC BA BC BC BB 
¡¡HI HI A6 C7 90 DD 18 6D 10 0D 00 31 6E       60 93 91 B0    BC BA NC BC BB 
¡¡HI HI A6 C7 90 DD 1D 6D 10 0D 00 31          60 93 91 B0 85 BC BA BC BC BB 
¡¡HI HI A6 C7 90 DD 02 6D 10 0D 00 31 7B 75 6F 60 93 91 B0 83 BC BA BC BC BB 
¡¡HI HI A6 C7 90 DD 08 6D 10 0D 00 31 6E 70 B5 60 94 91 B0 5F BC BA BB BB BB 
¡¡HI HI A6 C7 90 DD 0D 6D 10 0D 00 31 67 66 7A 60 94 91 B0 7E BC B9 BC BB BB 
¡¡HI HI A6 C7 90 DD 12 6D 10 0D 00 31 60 54 81 60 94 91 B1 A6 BC B9 BB BB BB 
¡¡HI HI A6 C7 90 DD 17 6D 10 0D 00 31 61 41 88 60 94 91 B0 63 BC B9 BB BB BB

¡¡¡¡AS15077C1  06Sep99
¡¡¡¡JST  13:54 - 14:11

             ¡¡              0D 00 31 95 52 7B 60 93 9O B0 74 BD BC BE BD BB 
¡¡HI HI A6 C7 90 DD 06 6D 10 0D 00 31 90 91 7A 60 93 90 B0 67 BD BC BE BD BB 
¡¡HI HI A6 C7 90 DD 0B 6D 10 0D 00 31 8B 90 7E 60 93 90 B0 5B BD BC BE BD BB 
¡¡HI HI A6 C7 90 DD 10 6D 10 0D 00 31 87 85 7B 60 95 92 B0 76 BD BC BE BD BB 
¡¡HI HI A6 C7 90 DD 15 6D 10 0D 00 31 87 76 79 60 93 91 B0 8C BD BC BE BD BB
¡¡HI HI A6 C7 90 DD 1A 6D 10 0D 00 31 7A 62 77 60 93 90 B0 B1 BD BB BD BD BB 
¡¡HI HI A6 C7 90 DD 05 6D 0A 0D 00 31 98 51 72 60 93 90 B0 81 BD BB BD BD BB 
¡¡HI HI A6 C7 90 DD 0B 6D 10 0D 00 31 54 41 7F 60 93 90 B0 75 BD BB BD BD BB 
¡¡HI HI A6 C7 90 DD 1A 6D FF 0D 00 31 4E 44 7D 60 93 90 B0 80 BD BB Bd BD BB 
¡¡HI HI A6 C7 90 DD 15 6D 10 0D 00 31 4B 4F 74 60 93 90 B0 82 BD BB BD BD BB
¡¡HI HI A6 C7 90 DD 1A 6D 10 0D 00 31 4C 59 77 60 93 90 B0 6A BD BA BD BC BB 
¡¡HI HI A6 C7 90 DD 1F 6D 10 0D 00 31 50 62 7E 60 93 90 B0 8B BD BA BC BC BB 
¡¡HI HI A6 C7 90 DD 04 6D 10 0D 00 31 59 65 82 60 93 91 B0 7A BD BE BC BC BB 
¡¡HI HI A6 C7 90 DD 0A 6D 10 0D 00 31 60 5F 87 60 93 91 B0 7E BD BA BC BC BB 
¡¡HI HI A6 C7 9G DD 0F 6D 10 0D 00 31 6A 5C 88 60 93 91 B0 80 BC BA BC BC BB 
¡¡HI HI A6 C7 90 DD 14 6D 1E 1E 00 31 6D 53 88 60 94 91 B0 7B BC BA BC BC BB
¡¡HI HI A6 C7 90 DD 19 6D 10 0D 00 31 6C 46 85 60 94 91 B0 8B BC BA BC BC BB
¡¡HI HI A6 C7 90 DD 1F 6D FF 0D 40 31 68 3F 84 60 94 91 B0 59 BC DA BC BB BB 
¡¡HI HI A6 C7 90 DD 04 6D 05 0D 00 31 5F 39 83 60 94 91 B0 5E BC BA BC BD BB
¡¡HI HI A6 C7 90 DD 09 6D 10 0D 00 31 4C 3D 87 60 94 91 B0 74 BC BA BC BB BB 
¡¡HI HI A6 C7 90 DD 0F 6D 0A 0D 00 31 3D 4A 8B 60 94 91 B0 C4 B9 BB BC BB BB 
¡¡HI HI A6 C7 90 DD 14 6D 10 0D 00 31 33 5B 8C 60 94 91 B0 BC B9 BB BB BB BB
¡¡HI HI A6 C7 90 DD 1A 6D 10 0D 00 31 2E 51 8A 60 94 91 B0 85 BB B9 BB BB BB 
¡¡HI HI A6 C7 90 DD 1E 6D 10 0D 00 31 35 58 8C 60 94 91 B0 8E BB B9 BB BB BB 
¡¡HI HI A6 C7 90 DD 04 6D 10 0D 00 31 35 81 7O 60 94 92 B0 5B BB B9 BB BA BB 

¡¡¡¡AS15076C1  06Sep99
¡¡¡¡JST  12:10 - 12:26

                            ¡¡  00 31 5F 57 87 60 94 91 B0 7C BE BB BD BD BB
¡¡HI HI A6 C7 90 DD 0E 6D 10 0D 00 31 59 5E 87 60 93 90 B0 85 BD BB BD BD BB 
¡¡HI HI A6 C7 90 DD 13 6D 10 0D 00 31 49 62 84 60 93 90 B0 91 BD BB BD BD BB 
¡¡HI FI A6 C7 90 DD 1E 6D 10 0D 00 31 44 5B 82 60 93 90 B0 7B BD BA BD BC BB 
¡¡HI HI A6 C7 90 DD 03 6D 10 0D 00 31 45 4F 76 60 93 90 B0 7D BD BA BC BC BB 
¡¡HI HI A6 C7 81 DD 08 6D FF 0D 00 31 4A 47 71 60 93 90 B0 8A BD BA BC BC BB 
¡¡HI HI A6 C7 81 DD 0D 6D 0A 0D 00 31 55 75 80 60 93 90 B0 82 BD BA BC BC BB 
¡¡HI HI A6 C7 90 DD 12 6D 10 0D 00 31 5F 3A 82 5F 93 91 B0 7D BD BA BC BC BB 
¡¡HI HI A6 C7 90 DD 17 6D 10 0D 00 31 6A 3B 86 60 93 90 B0 98 BC BA BC BC BB 
¡¡HI HI A6 C7 90 DD 1D 6D 10 0D 00 31 93 47 84 60 93 91 B0 7B BC B9 BC BC BB 
¡¡HI HI A6 C7 90 DD 12 6D 10 0D 00 31 85 56 81 60 93 90 B0 7F BC B9 BC BC BB 
¡¡HI HI A6 C7 90 DD 08 6D 19 0D 00 31 85 68 77 60 93 91 B0 8E BC B9 BB BC BB 
¡¡HI HI A6 C7 90 DD 0D 6D FF 0D 00 31 81 70 6F 60 93 91 B0 7C BC B9 BB BB BB 
¡¡HI HI A6 C7 90 DD 12 6H 10 0D 00 31 73 70 6D 60 94 91 B0 A1 BC B9 BB BB BB 
¡¡HI HI A6 C7 90 DD 1D 6D 10 0D 00 31 60 58 7C 60 94 91 B0 7B BC B9 BB BB BB
¡¡HI HI A6 C7 90 DD 02 6D 10 0D 00 31 60 44 80 60 94 91 B0 7C BC B9 BB BB BB 
¡¡HI HI A6 C7 90 DD 07 6D 05 0D 00 31 6B 38 7D 60 94 91 B0 5D BB B8 BB BB BB 
¡¡HI HI A6 C7 90 DD 1D 6D 10 0D 00 31 76 34 7D 60 94 91 B0 61 BB B8 BB BB BB 
¡¡HI HI A6 C7 90 DD 12 6D 10 0D 00 31 89 3D 81 60 94 92 B0 73 BB B8 BB BB BB 
¡¡HI HI A6 C7 90 DD 18 6D 10 0D 00 31 9D 53 87 60 84 91 B0 9B BB B8 BA BB BB 
¡¡HI HI A6 C7 90 DD 1D 6D 10 0D 00 31 A7 6B 7B 

¡¡¡¡AS15064C1  5Sep99
¡¡¡¡JST  15:03 - 15:05

¡¡HI HI A6 C7 90 DD 06 6D 10 0D 00 31 74 2B 88 69      B0 B3 BC BA BB BB BC 

¡¡¡¡AS12050C1   4Sep99
¡¡¡¡JST  14:01 -  14:16

¡¡HI HI A6 C7 90 0D 00 6D 10 0D 00 31    52 82 60 93 90 B0 7B BE BC BE BE BC 
¡¡HI HI A6 07 90 DD 08 6D 10 0D 00 31 49 42 86 60 94 91 B0 7F BE BC BE BE BC 
¡¡HI HI A6 C7 90 DD 0D 6D 10 0D 00 31 52 3C 88 60 93 90 B0 8C BE BC BE BE BC 
¡¡HI HI A6 C7 90 DD 12 6D 0A 0D 00 31 5D 3A 89 60 93 90 B0    BE BC BE BD BC 
¡¡HI HI A6 C7 90 DD 18 6D 10 0D 00 31 69    89 60 93 90 B0 8D BE BB BD BD BC 
¡¡HI HI A6 C7 90 DD 1C 6D 0A 0D 00 31 73 3C 8A 60 93 90 B0 91 BE BB BD BD BC 
¡¡HI HI A6 C7 90 DD 02 6D 10 0D 00 31 82 47 86 60 93 90 B0 92 BD BB BD BD BC 
¡¡HI HI A6 C7 91 DD 06 6D 10 0D 00 31 89 4E 88 60 93 90 B0 93 BD BB BD BD BC 
¡¡HI HI A6 C7 90 DD 0D 6D 10 0D 00 31 90 59 80 60 93 90 B0 7F BD BB BD BD BC 
¡¡HI HI A6 C7 90 DD 12 6D 10 0D 00 31 91 63 7F 60 93 91 B0 9B BD BB BD BD BC 
¡¡HI HI A6 C7 90 DD 17 6D 10 0D 00 31 8C 63 7C 60 93 91 B0 AC BD BB BD BD BC 
¡¡HI HI A6 C7 90 DD 1D 6D 05 0D 00 31 88 5C 7A 60 93 91 B0 93 BD BA BD BD BC 
¡¡HI HI A6 C7 90 DD 10 6D 10 0D 00 31 7F 52 7B 60 93 91 B0 8C BD BA BD BD BC 
¡¡HI HI A6 C7 90 DD 07 6D 10 0D 00 31 77 43 7D 60 94 91 B0 65 BD BA BD BD BC 
¡¡HI HI A6 C7 90 DD 0C 6D 10 0D 00 31 6F 36 7F 60 94 91 B0 7F BD BA BC BD BC 
¡¡HI HI A6 C7 90 DD 12 5D 10 0D 00 31 67 2A 7F 60 94 91 B0 8A BD BA BC BD BC 
¡¡HI HI A6 C7 90 DD 17 6D 10 0D 00 31 5F 25 7D 60 94 91 B0 71 BD BA BC BD BC 
¡¡HI HI A6 C7 90 DD 1C 6D 10 0D 00 31 58 27 78 60 94 92 B0 95 BD B9 BC BD BC 
¡¡HI HI A6 C7 90 DD 01 6D 0A 0D 00 31 56 33 83 60 94 91 B0 63 BD B9 BB BD BC 
¡¡HI HI A6 C7 90 DD 06 6D 10 0D 00 31 5B 45 87 6O 95 91 B0 7F BD B9 BB BD BC 
¡¡HI HI A6 C7 90 DD 0C 6D 10 0D 00 31 62 57 88 61 95 92 B0 92 BD B9 BB BC BC 

¡¡¡¡AS15049C1  4Sep99
¡¡¡¡JST   12:15 - 12:30

